FALCON HEAVY R/B, 54221

Orbit data source: Space-Track

FALCON HEAVY R/B, 54221 is space debris in GEO originally from a launch on Tue, 01 Nov 2022 UTC launched from the Air Force Eastern Test Range (AFETR). Debris objects in space refer to the collection of defunct objects orbiting the Earth. Examples of debris include non-operational satellites, rocket bodies, and fragments generated from explosions, collisions, or faulty payload assembly.

Not visible in the next 10 days
Identifier
54221, 2022-144C
Orbit
GEO
Country
Flag of USUS
Related business
Manufacturer
SpaceX
Mission
Spacecraft
Bus & Motor
F9ST2, Unknown motor
Mass
~4,000 kg wet, ~4,000 kg dry
Launch date (UTC)
2022-11-01 (3 years ago)
Launch vehicle
Unknown
Launch site
Air Force Eastern Test Range (AFETR)
Object type
Payload
Rocket body
Debris
Shape & HBR
Cyl, Unknown HBR
Radar Cross Section
49.816 m²

Expand to show TLE details & history
Last TLE update: 13 hours ago

TLE from 13 hours ago
0 FALCON HEAVY R/B
1 54221U 22144C   25346.82449643 -.00000026  00000-0  00000-0 0  9996
2 54221   5.5215  64.5394 0056968 211.3414 148.1342  0.98105895  9732
Epoch: 2025-12-12T19:47Z
TLE epoch observation values (Epoch: 2025-12-12T19:47:16.491Z)
Latitude
0.00001°
Longitude
45.77541°
Altitude
36,612.82 km
Speed
3.038 km/s
True Right ascension
04h 17m 25s
True Declination
0° 00' 00"
Sunlit
Object was in daylight at epoch
Visualization orbit readout
Latitude
Unknown
Longitude
Unknown
Altitude
Unknown
Speed
Unknown
Apparent Right ascension
Unknown
Apparent Declination
Unknown
Sunlit
N/A
Visualization observer readout
Local Sidereal Time
07:35:03
Azimuth
Unknown
Elevation
Unknown
Doppler factor
Unknown
Orbital elements
Apogee altitude
36,649.69 km
Perigee altitude
36,162.225 km
Semi-major axis
42,784.094 km
Eccentricity
0.0057
Inclination
5.5215°
RAAN
64.5394°
Arg. of periapsis
211.3414°
True anomaly
148.47676°
Mean anomaly
148.1342°
Eccentric anomaly
148.30569°
Mean motion
0.24526 °/min
Orbital period
1,467.85 mins
BSTAR
0
Loading maneuver chart data...
Computing Atmospheric mass density...
Loading historical data...
Loading historical data...
Loading historical data...
Loading historical data...
Loading historical data...
Loading historical data...
Loading historical data...

Documentation

Showing up to 5 results
|